軌道要素
Epoch 2003 Dec. 27.0 TT = JDT 2453000.5
T 2003 Dec. 9.12723 TT MPC
q 2.1286864 (2000.0) P Q
n 0.12997124 Peri. 102.91865 -0.83671186 -0.51274843
a 3.8598569 Node 46.62019 +0.34060850 -0.76228484
e 0.4485064 Incl. 15.34679 +0.42883460 -0.39498212
P 7.58
From 2235 observations 1989 Mar. 14-2012 Apr. 29, mean residual 0".8.
Nongravitational parameters A1 = +0.17, A2 = +0.0037.
|